Regional Weather Roundup
Issued by NWS Charleston, SC

Current Version | Previous Version | Text Only | Print | Product List | Glossary Off
Versions: 1 2 3 4 5 6 7 8 9 10 11 12 13 14 15 16 17 18 19 20 21 22 23 24 25 26 27 28 29 30 31 32 33 34 35 36 37 38 39 40 41 42 43 44 45 46 47 48 49 50
000 ASUS42 KCHS 241027 RWRCHS REGIONAL WEATHER ROUNDUP NATIONAL WEATHER SERVICE CHARLESTON SC 600 AM EDT FRI MAR 24 2017 NOTE: "FAIR" INDICATES FEW OR NO CLOUDS BELOW 12,000 FEET WITH NO SIGNIFICANT WEATHER AND/OR OBSTRUCTIONS TO VISIBILITY. NOT ALL STATIONS ARE QUALITY CONTROLLED. USE DATA WITH CAUTION... ESPECIALLY DEWPOINT OBSERVATIONS. SCZ027-030-031-034>040-042>050-241100- ...SOUTHEAST SOUTH CAROLINA... CITY SKY/WX TMP DP RH WIND PRES REMARKS N CHARLESTON PTCLDY 50 46 86 NE9 30.45S WATERFRONT PRK N/A 53 51 93 N6 30.44S JOHNS ISLAND FAIR 50 48 93 CALM 30.45S PINOPOLIS N/A 48 45 87 NE7 30.38F MONCKS CORNER FAIR 43 39 87 CALM 30.47S SUMMERVILLE FAIR 43 41 93 CALM 30.47S BEAUFORT MCAS CLEAR 48 47 96 N6 30.45R BEAUFORT ARPT FAIR 50 48 93 N6 30.44S HILTON HEAD IS NOT AVBL WALTERBORO SUNNY 46 43 87 CALM 30.48R ALLENDALE FAIR 46 41 81 CALM 30.45S ...SOUTHERN MIDLANDS AND PEE DEE... CITY SKY/WX TMP DP RH WIND PRES REMARKS GEORGETOWN FAIR 52 50 93 E6 30.49R KINGSTREE FAIR 41 36 81 N3 30.50R ORANGEBURG PTCLDY 46 38 73 E5 30.47S BARNWELL FAIR 48 41 76 E5 30.46S AIKEN CLOUDY 45 36 70 E3 30.49R MANNING PTSUNNY 43 36 75 NE3 30.49R COLUMBIA CLOUDY 49 36 61 E3 30.48R SUMTER CLOUDY 43 37 80 NE5 30.47R FLORENCE CLEAR 38 34 85 NE5 30.50S WCI 34 MYRTLE BEACH CLEAR 43 39 87 N9 30.50S N MYRTLE BEACH PTCLDY 42 40 92 NE8 30.49S $$ GAZ063-065-086>088-099>101-113>116-118-119-134>141-150-241100- ...SOUTHEAST GEORGIA... CITY SKY/WX TMP DP RH WIND PRES REMARKS SAVANNAH ARPT CLEAR 49 44 83 NE5 30.44R HUNTER AAF CLEAR 50 49 98 CALM 30.41R FORT STEWART CLEAR 48 45 88 N5 30.41R STATESBORO PTCLDY 46 45 96 CALM 30.45S SYLVANIA SUNNY N/A N/A N/A NE3 30.46R CLAXTON FAIR N/A N/A N/A NE3 30.44S ...CSRA...CENTRAL AND FAR SOUTHEAST GEORGIA... CITY SKY/WX TMP DP RH WIND PRES REMARKS THOMSON CLEAR 47 37 67 S3 30.51R AUGUSTA-BUSH CLEAR 48 39 71 CALM 30.46S AUGUSTA-DANIEL MOCLDY 51 33 50 E3 30.46S SWAINSBORO FAIR 50 45 81 E3 30.45R VIDALIA CLEAR 50 46 87 E6 30.43R EASTMAN CLOUDY 53 42 67 E5 30.45S HAZLEHURST FAIR 50 50 100 NE3 30.41S ALMA PTCLDY 50 49 96 NE5 30.40S WAYCROSS CLEAR 54 54 100 E3 30.40S JESUP FAIR 52 48 87 NE3 30.42S BAXLEY FAIR 50 50 100 E6 30.41S BRUNSWICK FOG 52 52 100 N3 30.42R VSB 1/2 SAINT SIMONS PTCLDY 56 53 90 N3 30.39R $$ SCZ027-028-034-036>038-045-046-048>050-GAZ119-141-241100- ...LAKE AND SUPPLEMENTAL COASTAL OBSERVATIONS... STATION/POSITION TIME TEMP WIND PRES WAVE SWELL AIR SEA DIR/SP/G HT/PER HT/PER/DIR (UTC) (F) (DEG/KT/KT) (MB) (FT/S) (FT/S/D) WINYAH BAY 0930 56 70/ 11 1031.0F LAKE MURRAY 1020 47 40/ 2/ 4 1031.8 ACE BASIN NERRS 0945 48 10/ 1 1031.0S FORT PULASKI 1000 57 60 20/ 5/ 8 1030.6 SAPELO ISLAND 1000 56 20/ 4 1029.0 $$ ANZ835-935-AMZ111-154-330-350-352-354-370-450-454-472-241100- ...C-MAN AND BUOY OBSERVATIONS... STATION/POSITION TIME TEMP WIND PRES WAVE SWELL AIR SEA DIR/SP/G HT/PER HT/PER/DIR (UTC) (F) (DEG/KT/KT) (MB) (FT/S) (FT/S/D) BUOY 41004 0950 66 71 110/ 14/ 17 1030.3R 5/ 7 3/ 70/ 7 BUOY 41008 0950 64 62 90/ 10/ 10 1028.9R 5/ 6 5/110/ 6 FOLLY BEACH CMAN 1000 58 50/ 12/ 14 1031.4R CAPERS NEARSHORE 1008 58 60/ 14/ 17 1030.7R FRIPP NEARSHORE 1008 59 59 50/ 10/ 14 1030.2R STATION/POSITION TIME TEMP WIND PRES WAVE SWELL AIR SEA DIR/SP/G HT/PER HT/PER/DIR (UTC) (F) (DEG/KT/KT) (MB) (FT/S) (FT/S/D) 5E ST. MARYS GA 1000 63 N/A 5/ 7 2/ 70/11 FRYING PAN BUOY 1010 64 72 140/ 10/ 14 1032.0 BUOY 41025 0950 57 74 160/ 10/ 14 1033.6R 6/10 7/ 40/10 CAPE LOOKOUT NC 1000 47 10/ 9/ 12 1033.0R BUOY 41002 0950 62 73 60/ 14/ 19 1031.9R 6/ 8 5/ 40/ 8 BUOY 41010 NOT AVBL ST AUGUSTINE FL 1000 66 65 80/ 13/ 15 1028.8R $$

USA.gov is the U.S. government's official web portal to all federal, state and local government web resources and services.